Content
SEND FEEDBACK

Daily
Averages
Monthly
Summary
Switzerland

GENEVA, SWITZERLAND


Home > Europe > Switzerland
Elevation: 1364 feet     Latitude: 46 15N     Longitude: 006 08E

WEATHER
 
SELECT A DAY
Number of Records: 315,702;   Date Range: 7/1/96 - 11/26/14
 
SHARE

PRINT THIS DATA

[ ← Previous Day ]
WEATHER ALMANAC - FEBRUARY 5, 2013
[ Next Day → ]
[ °C ]   °F
Weather ElementAverageHighLow
Temperature41.9 °F47 °F (2:00 pm)35.6 °F (10:50 pm)
Dewpoint35.5 °F41 °F (7:20 am)28.4 °F (11:20 pm)
Humidity76.6 %93 % (2:50 am)39 % (3:00 pm)
Barometer29.90 in30.17 in (1:00 am)29.65 in (4:50 pm)
Wind Speed13.3 mph20.7 mph (10:50 am)
Wind Gust33.4 mph (12:50 pm)
Weather ElementAverage
Visibility6.2 mi
Wind DirectionSW (223.2 °)

Weather ElementTotal
Precipitation---
Heating Degree Days23.7 (Base 65)
Averaged from 65 records on February 5, 2013
WEATHER CONDITIONS BREAKOUT
WIND DIRECTION BREAKOUT
WEATHER BY HOUR - FEBRUARY 5, 2013
[ °C ]   °F
Local TimeTemperatureDewpointHumidityBarometerVisibilityWind DirectionWind SpeedGust SpeedPrecipitationEventsConditions
12:20 AM41.0 °F37.4 °F87 %30.12 in6.2 miWSW (240°)5.8 mphMostly Cloudy
12:50 AM41.0 °F37.4 °F87 %30.12 in6.2 miWSW (240°)8.1 mphRainLight Rain Showers
1:00 AM41.0 °F38.0 °F83 %30.17 in7.0 miWest (260°)9.2 mphRainLight Rain Showers
1:20 AM41.0 °F37.4 °F87 %30.12 in6.2 miSW (230°)8.1 mphRainLight Rain Showers
1:50 AM41.0 °F37.4 °F87 %30.09 in6.2 miWSW (240°)8.1 mphMostly Cloudy
2:00 AM41.0 °F38.0 °F84 %30.14 inWSW (240°)6.9 mph
2:50 AM41.0 °F39.2 °F93 %30.06 in5.6 miWSW (250°)6.9 mphRainLight Rain Showers
3:00 AM40.0 °F38.0 °F89 %30.12 inWSW (250°)9.2 mph
3:20 AM41.0 °F39.2 °F93 %30.06 in6.2 miSW (230°)10.4 mphRainLight Rain Showers
3:50 AM39.2 °F37.4 °F93 %30.04 in5.6 miSW (230°)10.4 mphRainLight Rain Showers
4:20 AM41.0 °F39.2 °F93 %30.04 in6.2 miSW (220°)8.1 mphMostly Cloudy
4:50 AM44.6 °F39.2 °F81 %30.04 in6.2 miWSW (250°)6.9 mphRainLight Rain Showers
5:20 AM44.6 °F39.2 °F81 %30.01 in6.2 miSSW (210°)12.7 mphRainLight Rain Showers
5:50 AM41.0 °F39.2 °F93 %30.01 in5.6 miSW (220°)11.5 mphRainLight Rain Showers
6:00 AM42.0 °F39.0 °F84 %30.06 inSW (220°)10.4 mph
6:20 AM41.0 °F39.2 °F93 %30.01 in6.2 miWSW (240°)5.8 mphRainLight Rain Showers
6:50 AM41.0 °F39.2 °F93 %30.01 in6.2 miWSW (240°)10.4 mphRainLight Rain
7:00 AM42.0 °F40.0 °F88 %30.03 in5.0 miSW (230°)10.4 mphRainLight Rain
7:20 AM44.6 °F41.0 °F87 %29.98 in6.2 miSSW (200°)13.8 mphOvercast
7:50 AM42.8 °F41.0 °F93 %29.98 in6.2 miSW (230°)12.7 mphRainLight Rain
8:00 AM43.0 °F39.0 °F82 %30.02 inSW (220°)15.0 mph
8:20 AM42.8 °F39.2 °F87 %29.98 in6.2 miSW (220°)16.1 mphRainLight Rain
8:50 AM42.8 °F39.2 °F87 %29.98 in6.2 miSSW (210°)15.0 mphMostly Cloudy
9:00 AM44.0 °F37.0 °F67 %30.02 inSW (220°)19.6 mph
9:20 AM44.6 °F33.8 °F66 %30.01 in6.2 miSW (230°)18.4 mphMostly Cloudy
9:50 AM44.6 °F33.8 °F66 %29.98 in6.2 miSSW (210°)17.3 mphMostly Cloudy
10:20 AM44.6 °F35.6 °F71 %29.98 in6.2 miSW (220°)11.5 mphMostly Cloudy
10:50 AM44.6 °F35.6 °F71 %29.98 in6.2 miSW (220°)20.7 mphRainLight Rain Showers
11:00 AM43.0 °F36.0 °F69 %29.99 inWSW (240°)13.8 mph
11:20 AM44.6 °F37.4 °F76 %29.95 in6.2 miWest (260°)9.2 mphRainLight Rain Showers
11:50 AM44.6 °F37.4 °F76 %29.98 in6.2 miWSW (240°)11.5 mphRainLight Rain Showers
12:00 PM44.0 °F35.0 °F61 %29.98 inSW (220°)17.3 mph
12:20 PM44.6 °F35.6 °F71 %29.95 in6.2 miSW (220°)17.3 mph28.8 mphMostly Cloudy
12:50 PM44.6 °F33.8 °F66 %29.92 in6.2 miSSW (200°)19.6 mph33.4 mphMostly Cloudy
1:00 PM45.0 °F33.0 °F52 %29.93 in25.0 miSSW (200°)16.1 mphRainLight Rain Showers
1:20 PM46.4 °F35.6 °F66 %29.89 in6.2 miSSW (210°)16.1 mphMostly Cloudy
1:50 PM46.4 °F33.8 °F62 %29.86 in6.2 miSSW (210°)18.4 mphMostly Cloudy
2:00 PM47.0 °F32.0 °F44 %29.87 inSW (220°)19.6 mph
2:20 PM46.4 °F32.0 °F57 %29.83 in6.2 miSW (220°)19.6 mphMostly Cloudy
2:50 PM46.4 °F32.0 °F57 %29.80 in6.2 miSW (220°)15.0 mphMostly Cloudy
3:00 PM47.0 °F30.0 °F39 %29.81 inSW (220°)18.4 mph
3:20 PM46.4 °F32.0 °F57 %29.77 in6.2 miSW (220°)18.4 mphMostly Cloudy
3:50 PM46.4 °F33.8 °F62 %29.74 in6.2 miSW (220°)17.3 mphRainLight Rain Showers
4:20 PM44.6 °F35.6 °F71 %29.68 in6.2 miSSW (200°)15.0 mphRainLight Rain
4:50 PM44.6 °F37.4 °F76 %29.65 in6.2 miSW (220°)15.0 mphRainLight Rain Showers
5:00 PM45.0 °F37.0 °F64 %29.69 inSSW (210°)17.3 mph
5:20 PM44.6 °F37.4 °F76 %29.68 in1.2 miWest (270°)17.3 mphRainHeavy Rain Showers
5:50 PM39.2 °F33.8 °F81 %29.71 in3.7 miWest (260°)10.4 mphRainRain Showers
6:00 PM39.0 °F33.0 °F73 %29.75 inWest (260°)9.2 mph
6:20 PM39.2 °F33.8 °F81 %29.71 in5.0 miSSW (210°)12.7 mphRainLight Rain Showers
6:50 PM37.4 °F33.8 °F87 %29.71 in5.6 miSSW (200°)11.5 mphRainLight Rain
7:00 PM38.0 °F34.0 °F81 %29.75 in6.0 miSSW (210°)12.7 mphSnowLight Snow Showers
7:20 PM37.4 °F33.8 °F87 %29.68 in6.2 miSouth (170°)13.8 mphRainLight Rain
7:50 PM37.4 °F33.8 °F87 %29.68 in6.2 miSouth (170°)16.1 mphMostly Cloudy
8:00 PM38.0 °F32.0 °F73 %29.75 inSSW (200°)15.0 mph
8:20 PM37.4 °F32.0 °F81 %29.71 in6.2 miSouth (190°)15.0 mphMostly Cloudy
8:50 PM39.2 °F32.0 °F75 %29.74 in6.2 miSW (230°)8.1 mphRainLight Rain Showers
9:00 PM38.0 °F31.0 °F69 %29.78 inSW (220°)11.5 mph
9:20 PM39.2 °F32.0 °F75 %29.71 in5.0 miSSW (210°)17.3 mphMostly Cloudy
9:50 PM37.4 °F32.0 °F81 %29.74 in4.3 miSW (220°)17.3 mphRain-SnowLight Rain
10:20 PM37.4 °F32.0 °F81 %29.74 in4.3 miSW (230°)15.0 mphRain-SnowLight Rain
10:50 PM35.6 °F32.0 °F87 %29.74 in6.2 miSW (230°)11.5 mphMostly Cloudy
11:00 PM36.0 °F31.0 °F73 %29.80 inSW (230°)9.2 mph
11:20 PM37.4 °F28.4 °F70 %29.74 in6.2 miSW (220°)13.8 mphMostly Cloudy
11:50 PM37.4 °F28.4 °F70 %29.74 in6.2 miSSW (210°)13.8 mphMostly Cloudy
Hourly data recorded from LSGG, located miles away from Geneva, Switzerland







STORIES FROM OUR PARTNERS